Change the Weather History Date:

Sunday, July 28, 2013

  Actual Average Record
Temperature  
Mean Temperature 59 °F 71 °F  
Max Temperature 69 °F 83 °F 101 °F (1931)
Min Temperature 49 °F 60 °F 47 °F (1928)
Degree Days  
Heating Degree Days 6 0  
Month to date heating degree days 24 2  
Since 1 June heating degree days 87 64  
Since 1 July heating degree days 24 2  
Cooling Degree Days 0 7  
Month to date cooling degree days 234 195  
Year to date cooling degree days 356 347  
Since 1 June cooling degree days 324 315  
Growing Degree Days 8 (Base 50)    
Moisture  
Dew Point 50 °F    
Average Humidity 76    
Maximum Humidity 100    
Minimum Humidity 51    
Precipitation  
Precipitation 0.00 in 0.13 in 1.75 in (1903)
Month to date precipitation 0.60 3.48  
Year to date precipitation 26.51 17.25  
Snow  
Snow 0.00 in 0.00 in 0.00 in ()
Month to date snowfall 0.0 0.0  
Since 1 June snowfall 0.0 0.0  
Since 1 July snowfall 0.0 0.0  
Snow Depth 0.00 in    
Sea Level Pressure  
Sea Level Pressure 29.96 in    
Wind  
Wind Speed 6 mph (NW)    
Max Wind Speed 16 mph    
Max Gust Speed 21 mph    
Visibility 9 miles    
Events      
T = Trace of Precipitation, MM = Missing Value Source: NWS Daily Summary

Daily Weather History Graph

Daily Weather History Graph

Search for Another Location

Airport or City:

Trip Planner

Search our weather history database for the weather conditions in past years. The results will help you decide how hot, cold, wet, or windy it might be!

Date:

Astronomy

Jul. 28, 2013 Rise Set
Actual Time 5:47 AM CDT 8:36 PM CDT
Civil Twilight 5:13 AM CDT 9:10 PM CDT
Nautical Twilight 4:30 AM CDT 9:53 PM CDT
Astronomical Twilight 3:39 AM CDT 10:44 PM CDT
Moon 11:37 PM CDT (7/28) 12:50 PM CDT (7/28)
Length of Visible Light 15h 57m
Length of Day
14h 49m
Waning Gibbous, 60% of the Moon is Illuminated
Jul 28
Waning Gibbous
Jul 29
Last Quarter
Aug 6
New
Aug 14
First Quarter
Aug 20
Full

Hourly Weather History & Observations

Time (CDT) Temp. Dew Point Humidity Pressure Visibility Wind Dir Wind Speed Gust Speed Precip Events Conditions
12:56 AM 48.9 °F 46.9 °F 93% 29.91 in 10.0 mi North 5.8 mph - N/A   Overcast
1:56 AM 48.9 °F 46.9 °F 93% 29.91 in 10.0 mi Calm Calm - N/A   Overcast
2:56 AM 48.9 °F 46.9 °F 93% 29.91 in 10.0 mi NNW 4.6 mph - N/A   Overcast
3:35 AM 48.2 °F 48.2 °F 100% 29.90 in 10.0 mi WNW 3.5 mph - N/A   Overcast
3:56 AM 50.0 °F 48.9 °F 96% 29.91 in 10.0 mi West 3.5 mph - N/A   Overcast
4:42 AM 51.8 °F 48.2 °F 88% 29.91 in 10.0 mi Calm Calm - N/A   Overcast
4:56 AM 51.1 °F 50.0 °F 96% 29.91 in 10.0 mi NW 3.5 mph - N/A   Overcast
5:25 AM 51.8 °F 50.0 °F 94% 29.91 in 10.0 mi NNW 6.9 mph - N/A   Overcast
5:56 AM 52.0 °F 50.0 °F 93% 29.93 in 6.0 mi WNW 8.1 mph - N/A   Overcast
6:04 AM 51.8 °F 51.8 °F 100% 29.92 in 2.0 mi WNW 5.8 mph - N/A   Overcast
6:16 AM 51.8 °F 51.8 °F 100% 29.92 in 1.5 mi WNW 6.9 mph - N/A   Overcast
6:56 AM 52.0 °F 51.1 °F 97% 29.94 in 1.5 mi NW 6.9 mph - N/A   Overcast
7:02 AM 51.8 °F 51.8 °F 100% 29.93 in 10.0 mi WNW 8.1 mph - N/A   Overcast
7:37 AM 53.6 °F 51.8 °F 94% 29.93 in 10.0 mi NW 8.1 mph - N/A   Overcast
7:56 AM 53.1 °F 50.0 °F 89% 29.94 in 10.0 mi NW 8.1 mph - N/A   Overcast
8:56 AM 54.0 °F 50.0 °F 86% 29.95 in 10.0 mi NW 8.1 mph - N/A   Overcast
9:47 AM 55.4 °F 50.0 °F 82% 29.94 in 10.0 mi NNW 9.2 mph - N/A   Overcast
9:56 AM 55.9 °F 50.0 °F 80% 29.95 in 10.0 mi NNW 8.1 mph - N/A   Overcast
10:56 AM 57.9 °F 50.0 °F 75% 29.96 in 10.0 mi NW 8.1 mph - N/A   Overcast
11:56 AM 60.1 °F 50.0 °F 69% 29.97 in 10.0 mi WNW 6.9 mph - N/A   Overcast
12:56 PM 61.0 °F 50.0 °F 67% 29.98 in 10.0 mi NW 13.8 mph - N/A   Overcast
1:56 PM 64.0 °F 50.0 °F 60% 29.98 in 10.0 mi WNW 12.7 mph - N/A   Overcast
2:11 PM 64.4 °F 50.0 °F 59% 29.97 in 10.0 mi NW 9.2 mph 19.6 mph N/A   Overcast
2:39 PM 64.4 °F 50.0 °F 59% 29.98 in 10.0 mi WNW 10.4 mph - N/A   Overcast
2:48 PM 64.4 °F 51.8 °F 64% 29.97 in 10.0 mi NNW 6.9 mph - N/A   Overcast
2:56 PM 64.9 °F 50.0 °F 58% 29.98 in 10.0 mi NW 11.5 mph - N/A   Overcast
3:56 PM 69.1 °F 50.0 °F 51% 29.96 in 10.0 mi WNW 11.5 mph - N/A   Mostly Cloudy
4:56 PM 68.0 °F 50.0 °F 52% 29.97 in 10.0 mi NNW 10.4 mph - N/A   Mostly Cloudy
5:56 PM 68.0 °F 52.0 °F 56% 29.97 in 10.0 mi North 8.1 mph - N/A   Overcast
6:56 PM 68.0 °F 52.0 °F 56% 29.99 in 10.0 mi North 9.2 mph - N/A   Clear
7:56 PM 64.9 °F 52.0 °F 63% 30.00 in 10.0 mi North 6.9 mph - N/A   Clear
8:56 PM 61.0 °F 54.0 °F 78% 30.02 in 10.0 mi Calm Calm - N/A   Mostly Cloudy
9:56 PM 61.0 °F 53.1 °F 75% 30.04 in 10.0 mi Calm Calm - N/A   Mostly Cloudy
10:56 PM 55.9 °F 53.1 °F 90% 30.04 in 10.0 mi Calm Calm - N/A   Clear
11:56 PM 55.0 °F 52.0 °F 89% 30.06 in 10.0 mi Calm Calm - N/A   Clear